Location: Asheville, NC
(35.6000°N, 82.5500°W)
Time: 14:57:20
(UTC-05:00)

NO-84 - Pass Details

Date: 10 January 2018
Orbit: 336 x 568 km, 55.0° (Epoch: 15 January)

Event Time Altitude Azimuth Distance (km) Brightness Sun altitude
Exits shadow 06:11:05 11° 210° (SSW) 1,462 ? -17.7°
Drops below altitude 10° 06:11:22 10° 205° (SSW) 1,520 ? -17.7°
Sets 06:14:25 0° 177° (S) 2,448 ? -17.1°
